Theta_e
323 324 327 325 327 328 332 335 337 345 346 344 346 346 346 343 346 346 345 345 344 343 343 343 342 342 342 342 342 341 342 342 343 344 345 345 346 346 346 345 347 347 348 350
320 322 323 324 326 328 332 340 346 346 348 346 348 346 346 344 345 347 346 345 345 345 344 343 343 343 343 342 342 342 342 342 343 343 344 345 346 346 349 349 349 350 349 349
320 323 323 325 324 325 326 337 344 344 348 344 345 346 346 347 345 346 346 347 346 345 345 345 345 344 344 343 342 342 342 342 343 343 345 345 346 347 349 350 349 350 349 347
320 321 324 324 325 323 324 326 335 349 345 345 342 347 340 344 344 344 344 345 345 346 346 346 346 346 346 344 343 342 342 342 343 343 345 345 345 347 349 350 349 351 345 347
321 323 324 324 324 324 323 338 344 343 341 337 339 343 341 340 342 341 342 344 344 345 346 346 346 345 345 345 342 341 342 342 343 344 344 345 345 346 349 351 348 348 348 349
319 321 322 321 322 323 333 334 329 330 332 341 338 338 337 340 340 340 339 341 344 343 344 345 346 345 345 344 342 342 341 342 343 344 345 346 346 346 349 351 349 349 349 346
318 319 319 321 321 322 327 328 332 342 339 342 336 339 337 334 339 339 338 339 340 342 342 344 345 345 344 343 342 342 341 341 343 344 344 345 347 348 350 352 351 349 348 342
317 318 318 318 319 320 327 327 321 327 329 330 338 340 337 334 336 338 340 340 340 340 340 342 345 345 344 344 343 342 342 341 342 343 344 345 347 349 351 353 350 350 346 341
315 318 317 319 320 319 320 321 320 330 334 334 334 338 335 335 336 338 342 341 340 341 342 345 345 344 345 344 344 343 343 342 342 343 342 345 346 349 351 351 351 350 343 341
316 318 318 319 320 319 319 318 322 322 336 339 334 340 338 337 338 338 340 342 341 342 344 345 345 346 345 345 345 344 343 342 343 344 343 343 346 349 351 352 352 349 340 343
313 316 318 320 320 319 318 319 317 318 323 327 329 329 331 335 335 337 337 340 340 340 340 342 343 344 345 346 345 344 344 343 343 345 345 345 345 348 351 353 352 346 341 342
313 312 316 318 318 317 319 320 316 317 320 326 326 329 329 332 332 334 336 338 340 338 339 340 344 344 342 342 346 345 345 345 344 344 345 345 347 349 352 353 351 343 342 341
314 314 316 317 316 318 321 321 316 313 317 329 331 329 327 330 333 336 336 337 338 339 342 344 346 346 344 342 342 345 345 345 345 345 346 347 349 352 352 353 349 343 343 341
316 309 315 318 318 317 320 320 319 317 318 320 327 326 324 328 334 334 337 339 339 339 341 345 346 347 346 345 344 345 346 346 346 346 346 348 350 351 353 352 344 342 343 337
315 318 316 317 318 328 334 333 321 321 318 321 321 324 323 334 334 334 334 336 338 340 341 343 345 346 347 347 347 346 345 346 346 346 347 350 353 354 353 345 339 339 335 333
322 329 322 323 324 331 337 337 337 340 340 336 334 329 331 334 334 333 334 334 338 338 340 342 344 345 346 347 347 346 346 346 346 346 348 353 355 354 351 339 339 336 337 336
326 325 324 326 324 329 325 338 338 338 337 338 338 333 334 336 335 334 341 342 338 336 340 343 342 343 345 346 347 347 347 347 346 347 351 355 354 353 342 342 340 338 339 339
325 324 321 327 324 329 326 332 336 338 336 335 336 336 336 336 336 340 346 348 347 342 337 340 343 345 346 347 348 348 348 347 348 350 354 356 354 349 342 343 344 344 343 341
321 323 324 328 324 325 333 333 336 337 338 336 337 336 336 337 338 342 347 349 350 347 338 337 344 347 348 348 349 350 350 351 352 355 356 355 351 345 345 345 347 345 343 343
323 320 325 324 329 329 325 332 332 332 340 335 336 336 336 336 342 340 350 346 348 352 347 338 339 346 349 350 351 352 353 354 355 356 355 351 348 345 344 342 348 345 345 340
328 328 330 331 330 329 326 332 332 342 339 336 336 336 335 333 334 339 348 334 335 349 350 348 346 348 349 352 352 353 354 355 354 355 351 350 341 337 341 334 348 346 339 336
329 329 331 331 333 332 330 332 334 331 334 336 336 336 335 334 335 335 335 336 335 332 345 351 349 350 351 353 354 355 355 356 356 353 350 347 338 343 341 346 346 340 336 334
330 326 329 328 328 326 331 331 332 332 334 335 336 335 335 335 336 335 335 334 336 336 333 349 354 355 357 357 358 358 355 353 354 350 347 344 345 343 341 344 342 338 335 331
327 327 330 326 324 326 328 328 328 330 331 332 331 330 334 336 334 336 336 336 341 341 338 337 342 354 356 355 356 357 353 337 332 344 344 343 346 346 346 342 338 335 332 328
326 327 326 325 325 327 328 328 329 330 328 328 330 330 330 336 336 333 341 337 338 343 339 334 338 348 354 354 354 354 347 338 334 337 344 344 347 345 342 339 337 335 325 319
326 326 326 327 326 325 327 329 329 329 330 330 330 330 331 333 330 332 336 346 347 345 341 338 335 341 350 352 351 346 341 336 333 345 344 344 346 342 339 337 337 323 320 323
Wind_Speed
3 4 6 5 6 5 3 3 6 4 1 1 6 5 5 11 16 18 24 30 34 35 36 31 32 30 32 31 27 23 23 20 19 18 16 14 11 8 10 11 12 14 17 18
5 8 4 3 3 4 4 4 6 6 2 2 5 7 7 11 15 22 27 29 36 36 34 34 33 30 28 30 31 28 23 22 20 19 17 15 10 10 10 11 13 13 13 12
6 4 4 3 0 2 3 5 5 7 3 3 6 9 2 3 11 23 27 38 36 40 39 36 34 33 31 28 30 30 27 23 22 20 19 18 17 16 14 9 8 12 11 10
5 4 4 3 2 4 5 4 11 3 4 2 4 5 2 2 5 9 19 23 32 39 40 39 36 33 33 30 29 29 29 25 22 19 22 22 20 18 11 10 9 11 9 10
7 5 3 2 4 4 4 10 7 8 4 4 3 2 8 5 8 10 14 26 28 34 40 37 35 33 32 31 29 26 29 27 25 22 21 24 22 20 16 12 11 12 11 8
7 2 3 6 3 6 6 6 9 6 4 4 1 3 6 3 6 1 6 23 29 28 30 36 35 30 29 32 31 28 27 28 27 26 25 24 21 18 17 12 14 12 9 8
5 5 3 4 2 3 6 6 3 3 2 6 1 2 12 5 5 6 7 14 23 31 28 30 35 36 28 34 33 30 29 30 29 30 27 26 23 19 17 14 14 11 9 6
6 6 6 4 8 8 6 8 6 6 4 5 4 5 6 5 6 16 10 8 12 23 29 30 34 36 35 32 33 33 30 32 30 29 30 28 26 21 17 16 14 11 9 6
6 6 4 5 4 7 3 4 4 7 3 2 3 7 10 6 7 6 5 10 13 19 22 27 31 36 34 35 35 33 31 29 24 27 27 31 29 22 17 16 13 10 9 6
6 2 1 4 3 3 4 6 3 2 5 4 5 5 6 4 3 4 5 12 16 21 26 27 26 30 34 35 33 36 31 30 25 28 30 31 31 23 18 17 12 10 9 8
4 4 6 3 3 7 1 1 5 5 4 6 2 6 8 8 6 9 10 20 20 17 22 25 27 25 23 27 32 33 32 31 29 28 27 27 30 26 21 16 11 11 10 9
5 5 5 12 3 1 2 5 6 5 4 1 4 7 5 8 5 11 16 22 23 12 18 17 14 24 28 22 28 29 29 29 31 28 25 23 27 27 23 16 14 14 13 13
6 2 1 9 6 2 3 3 4 5 4 4 6 6 4 6 7 12 12 14 18 14 12 9 7 19 23 25 24 27 29 29 29 29 27 25 28 28 23 18 18 17 17 15
7 3 6 8 7 4 5 2 4 5 4 4 6 6 10 10 11 12 11 13 11 14 12 9 9 14 18 21 26 28 27 27 29 29 27 28 31 29 24 21 21 20 19 17
4 2 2 1 2 5 3 2 0 2 4 5 3 6 7 5 12 17 19 13 16 14 13 13 13 13 16 20 23 27 30 30 29 29 28 30 31 26 23 23 23 22 21 18
2 0 1 3 3 5 5 4 6 4 2 5 4 8 2 18 16 13 12 4 9 17 19 19 19 17 20 21 22 24 26 29 31 31 30 32 32 28 26 25 25 23 21 19
3 3 3 2 1 3 4 0 5 1 3 3 3 5 8 13 11 14 11 8 11 17 18 23 24 22 19 19 20 23 25 27 30 32 33 34 31 27 26 26 25 23 21 19
4 4 2 2 3 4 4 1 2 4 3 5 6 8 12 14 19 5 18 20 14 11 17 20 23 20 17 17 18 21 24 28 31 32 33 35 30 26 28 26 24 21 19 16
1 5 3 3 1 3 3 5 5 5 4 6 5 8 13 15 2 13 23 20 20 13 10 15 16 23 19 17 18 23 24 28 28 31 33 31 24 27 28 26 23 21 20 17
4 6 4 3 4 6 6 3 3 7 4 8 4 5 7 12 6 4 23 28 24 15 8 13 15 21 25 22 21 23 25 28 30 32 28 18 16 9 16 17 25 22 20 15
3 3 4 1 2 5 6 4 12 5 6 9 6 5 3 2 3 9 15 24 31 28 14 6 9 12 20 22 23 26 28 31 31 23 20 26 25 27 34 29 33 25 17 14
3 3 3 2 2 4 6 4 6 4 4 7 8 7 6 4 4 6 14 19 23 30 27 13 3 4 9 17 22 27 31 31 25 18 17 19 19 28 29 30 26 20 16 15
2 5 3 7 5 4 5 7 10 9 8 8 11 11 13 13 13 15 19 19 21 21 21 18 9 4 4 8 16 21 20 18 12 13 20 18 27 29 25 27 23 20 21 15
3 4 2 3 3 6 11 16 16 21 23 21 21 21 19 21 22 25 32 32 15 14 13 13 13 9 4 7 12 19 13 13 12 31 20 22 26 29 29 22 19 21 21 18
3 5 2 5 10 11 3 9 12 12 15 22 23 22 18 19 23 21 24 18 16 10 6 11 12 9 6 8 9 16 15 16 15 28 19 21 29 31 26 22 21 18 14 10
8 6 4 6 10 5 15 17 15 23 26 21 22 26 22 16 16 19 18 11 1 1 4 11 11 7 4 7 11 14 13 15 13 23 25 27 34 30 27 23 20 17 14 14
Wind_Direction
23 78 226 198 198 204 230 243 257 256 268 34 233 295 183 202 190 194 203 212 213 209 217 221 224 225 233 228 228 226 227 231 224 222 224 229 240 254 268 270 277 290 307 310
24 238 177 168 208 197 204 229 249 292 151 114 7 276 213 189 207 202 205 211 219 220 217 221 225 226 234 230 230 227 229 233 232 231 233 241 255 258 272 280 287 298 301 299
171 239 117 166 155 335 246 203 230 229 77 72 352 299 105 206 190 204 216 219 218 221 221 222 228 230 235 232 232 232 230 231 233 237 237 238 245 249 261 280 286 302 310 313
228 252 233 135 206 154 287 212 248 163 68 290 6 279 305 202 238 217 218 217 218 220 225 226 227 230 233 235 233 230 231 233 233 239 244 240 246 252 270 272 290 297 308 316
239 182 173 175 197 165 256 43 65 89 69 27 353 49 271 169 203 234 218 220 221 225 223 224 226 230 230 229 226 229 229 231 231 231 246 240 245 251 260 278 293 296 294 306
226 237 208 211 176 184 135 64 44 52 43 337 224 118 279 227 221 236 198 222 225 225 222 224 224 226 227 222 223 228 233 232 233 238 244 243 247 253 257 270 280 284 281 299
321 259 240 162 131 48 79 67 13 3 5 226 172 128 246 256 240 208 245 256 227 222 226 224 221 220 223 221 223 228 235 235 237 239 239 245 249 251 254 266 276 273 272 274
174 313 182 172 173 183 174 155 154 203 206 263 135 240 260 218 196 244 280 267 214 212 221 227 221 220 222 222 226 231 238 239 241 244 242 243 248 249 252 261 273 267 262 255
159 272 280 203 157 131 180 160 180 104 350 34 258 291 299 264 263 268 214 201 205 210 218 224 227 222 225 225 225 230 235 239 245 247 251 246 246 245 248 260 269 246 240 228
203 324 269 289 95 53 164 154 80 5 139 225 288 285 241 279 242 209 189 201 209 219 221 219 223 224 230 233 234 230 235 241 245 249 255 254 246 243 241 254 254 224 221 205
130 124 283 360 180 185 75 73 42 121 125 159 233 268 212 241 174 204 215 203 207 227 219 214 221 224 229 224 226 228 230 235 239 248 254 252 242 237 238 246 229 217 206 203
209 158 204 226 266 360 139 173 156 129 227 92 147 278 220 247 241 195 219 223 213 214 206 211 235 220 216 212 218 221 224 231 237 246 253 255 240 229 229 233 214 208 202 204
180 230 11 335 351 51 188 141 102 102 84 197 137 261 323 300 283 248 240 203 203 200 198 219 235 203 207 212 213 219 223 231 240 245 250 250 226 219 224 225 209 205 201 205
116 113 159 192 204 161 128 111 143 113 108 177 229 281 297 329 329 320 264 241 219 215 199 201 206 201 203 214 219 218 224 232 238 244 243 233 217 215 220 216 208 203 201 202
93 64 275 60 72 75 103 7 359 128 143 159 266 237 268 321 308 306 314 310 257 237 226 212 218 218 219 215 217 220 224 228 236 240 233 221 212 211 212 206 202 198 195 198
30 48 300 73 36 116 90 41 77 59 30 284 317 281 225 316 328 324 334 309 256 260 249 236 220 222 225 222 221 225 226 229 234 233 224 213 209 208 205 200 195 193 196 197
73 108 57 206 91 150 39 222 105 125 270 215 254 265 317 319 323 315 351 351 295 275 280 264 233 234 233 231 223 226 229 229 228 224 219 208 209 208 199 196 195 197 199 202
133 100 96 240 4 193 240 278 124 160 213 236 270 277 288 289 299 348 24 18 358 289 268 269 241 234 238 233 225 229 229 228 223 219 209 204 209 199 196 193 198 203 207 206
11 127 90 127 101 324 309 239 180 163 262 203 270 303 316 340 262 21 18 22 14 342 263 258 250 236 237 240 231 227 225 224 217 206 203 212 203 198 191 194 200 206 208 211
61 72 118 138 154 198 226 222 213 114 284 200 214 289 323 19 64 280 21 28 25 15 296 238 248 234 231 234 232 227 221 214 205 202 211 230 200 156 212 220 215 208 213 216
353 11 121 147 173 286 237 189 144 118 237 174 207 257 324 97 176 340 25 29 25 23 13 290 248 241 233 233 232 228 224 218 211 208 231 214 230 213 197 199 210 203 201 203
184 149 184 96 102 270 152 101 178 272 186 198 221 255 270 256 325 337 5 9 4 11 21 34 360 260 250 243 239 231 225 220 208 206 211 207 228 190 195 199 197 196 199 188
269 187 187 183 216 255 196 252 280 300 296 290 294 295 286 301 313 322 313 325 340 352 3 28 28 52 195 226 235 225 208 222 227 218 205 213 191 189 192 200 192 193 193 202
228 172 197 14 270 246 284 286 285 276 279 286 292 298 299 306 312 317 290 285 316 336 354 358 2 9 315 267 238 217 204 130 338 262 224 203 196 190 192 192 197 197 201 199
188 143 180 268 285 294 303 343 345 341 292 283 277 287 306 305 312 324 328 296 289 336 37 29 12 359 320 281 237 210 219 286 285 224 227 225 205 190 183 188 193 202 199 186
186 184 164 229 258 237 290 327 320 316 312 298 289 286 286 300 312 333 336 307 360 72 61 50 45 23 325 252 221 231 266 265 205 204 217 219 192 188 193 189 186 179 172 169